Regional Weather Roundup
Issued by NWS

Home | Current Version | Previous Version | Text Only | Print | Product List | Glossary Off
Versions: 1 2 3 4 5 6 7 8 9 10 11 12 13 14 15 16 17 18 19 20 21 22 23 24 25 26 27 28 29 30 31 32 33 34 35 36 37 38 39 40 41 42 43 44 45 46 47 48 49 50

000
ASUS43 KFSD 262302
RWRSD

WEATHER ROUNDUP FOR SOUTH DAKOTA
NATIONAL WEATHER SERVICE SIOUX FALLS SD
600 PM CDT THU APR 26 2018

NOTE: "FAIR" INDICATES FEW OR NO CLOUDS BELOW 12,000 FEET WITH NO
SIGNIFICANT WEATHER AND/OR OBSTRUCTIONS TO VISIBILITY.


SDZ001>005-009-010-012>017-270000-
NORTHWEST AND NORTH CENTRAL SOUTH DAKOTA

CITY           SKY/WX    TMP DP  RH WIND       PRES   REMARKS
BUFFALO          N/A     65  25  22 W22G30    30.05F
FAITH            N/A     64  31  28 W18       30.08F
MOBRIDGE       SUNNY     67  27  22 NW14      30.02F
$$

SDZ012>016-024>037-041>051-057-063-072>074-270000-
SOUTHWEST AND SOUTH CENTRAL SOUTH DAKOTA

CITY           SKY/WX    TMP DP  RH WIND       PRES   REMARKS
RAPID CTY ARPT SUNNY     64  29  26 N16G26    30.12F
PIERRE         SUNNY     66  23  19 NW18G25   30.07F
CUSTER         SUNNY     57  18  21 N5        30.18F
ELLSWORTH AFB  SUNNY     64  29  26 N17G24    30.12F
PHILIP         SUNNY     67  29  24 NW17      30.10F
PINE RIDGE     SUNNY     64  29  26 NW13      30.16F
SPEARFISH      FAIR      61  30  31 NW9G25    30.16F
WINNER         FAIR      66  27  23 NW17      30.11S
$$

SDZ004>011-016>023-039-040-270000-
NORTHEAST SOUTH DAKOTA

CITY           SKY/WX    TMP DP  RH WIND       PRES   REMARKS
ABERDEEN       SUNNY     66  25  21 NW20G29   30.02F
WATERTOWN      SUNNY     58  28  32 N18       30.03S
BROOKINGS      SUNNY     57  32  38 N20       30.03R
SISSETON         N/A     62  30  29 NW23G29   30.00S
$$

SDZ017-020-022-023-036>040-048>070-270000-
SOUTHEAST SOUTH DAKOTA

CITY           SKY/WX    TMP DP  RH WIND       PRES   REMARKS
SIOUX FALLS    SUNNY     59  30  33 N22       30.03S
HURON          SUNNY     63  31  30 NW20G31   30.04F
CHAMBERLAIN    SUNNY     65  29  26 NW12      30.09F
MITCHELL       SUNNY     63  32  31 N17G28    30.07F
YANKTON        SUNNY     61  29  29 N26       30.06F
$$

ABBREVIATIONS USED IN REMARKS
   TC - TEMPERATURE IN CELSIUS
  WCI - WIND CHILL INDEX
   HX - HEAT INDEX
  VSB - VISIBILITY





USA.gov is the U.S. government's official web portal to all federal, state and local government web resources and services.